Regional Weather Roundup
Issued by NWS Little Rock, AR

Home | Current Version | Previous Version | Graphics & Text | Print | Product List | Glossary On
Versions: 1 2 3 4 5 6 7 8 9 10 11 12 13 14 15 16 17 18 19 20 21 22 23 24 25 26 27 28 29 30 31 32 33 34 35 36 37 38 39 40 41 42 43 44 45 46 47 48 49 50
811
ASUS44 KLZK 231705
RWRLZK

WEATHER ROUNDUP FOR ARKANSAS
NATIONAL WEATHER SERVICE LITTLE ROCK AR
1200 PM CDT THU MAR 23 2017

NOTE: "FAIR" INDICATES FEW OR NO CLOUDS BELOW 12,000 FEET WITH NO
SIGNIFICANT WEATHER AND/OR OBSTRUCTIONS TO VISIBILITY.

ARZ001-003-010-029-231800-
NORTHWEST ARKANSAS

CITY           SKY/WX    TMP DP  RH WIND       PRES   REMARKS
FAYETTEVILLE   PTSUNNY   64  54  69 S16       30.12F
FORT SMITH     MOSUNNY   65  43  44 E15       30.12F
HARRISON       CLOUDY    65  44  46 SE14      30.17F
BENTONVILLE    SUNNY     66  54  63 S15G23    30.13F
ROGERS         SUNNY     66  51  58 SE16      30.13F
SILOAM SPGS    SUNNY     66  52  59 S17       30.11F
HIGHFILL       SUNNY     66  52  60 S21G28    30.11F
SPRINGDALE     MOSUNNY   66  54  63 SE15G23   30.15F
$$

ARZ004-005-016-231800-
NORTH CENTRAL ARKANSAS

CITY           SKY/WX    TMP DP  RH WIND       PRES   REMARKS
BATESVILLE     CLOUDY    61  37  41 E6        30.23F
FLIPPIN        SUNNY     66  37  34 SE7       30.16F
MTN HOME       SUNNY     63  38  39 S8        30.18F
$$

ARZ040-041-231800-
WEST CENTRAL ARKANSAS

CITY           SKY/WX    TMP DP  RH WIND       PRES   REMARKS
MENA           MOSUNNY   70  59  68 S3        30.14F
MOUNT IDA      PTSUNNY   66  51  58 SE5       30.14F
$$

ARZ009-017-025-026-028-231800-
NORTHEAST ARKANSAS

CITY           SKY/WX    TMP DP  RH WIND       PRES   REMARKS
CORNING        FAIR      57  36  44 SE6       30.26F
JONESBORO      SUNNY     61  37  41 SE5       30.24F
NEWPORT        MOSUNNY   61  40  45 VRB3      30.24F
WALNUT RIDGE   SUNNY     59  37  44 E5        30.24F
BLYTHEVILLE    SUNNY     61  37  41 SE7       30.27F
$$

ARZ022-023-033-042-044-231800-
CENTRAL ARKANSAS

CITY           SKY/WX    TMP DP  RH WIND       PRES   REMARKS
LITTLE ROCK    MOSUNNY   67  46  47 SE6       30.20F
JACKSONVILLE   SUNNY     67  46  45 SE7       30.20F
CONWAY           N/A     68  45  42 SE7       30.18F
SEARCY         PTSUNNY   65  42  43 VRB3      30.24F
HOT SPRINGS    SUNNY     68  51  54 VRB6      30.18F
RUSSELLVILLE   SUNNY     64  43  46 VRB3      30.18F
CLINTON        CLOUDY    64  43  45 VRB7      30.21F
$$

ARZ036-231800-
EAST ARKANSAS

CITY           SKY/WX    TMP DP  RH WIND       PRES   REMARKS
WEST MEMPHIS   SUNNY     67  41  38 SE9       30.23F
$$

ARZ050-053-066-070-073-231800-
SOUTHWEST ARKANSAS

CITY           SKY/WX    TMP DP  RH WIND       PRES   REMARKS
ARKADELPHIA    FAIR      71  57  61 S8        30.18F
CAMDEN         SUNNY     77  54  44 SE8       30.17F
TEXARKANA      SUNNY     72  58  61 S12       30.15F
EL DORADO      SUNNY     75  57  53 SE12      30.18F
DE QUEEN       MOSUNNY   68  57  68 SE8       30.12F
$$

ARZ056-057-069-231800-
SOUTHEAST ARKANSAS

CITY           SKY/WX    TMP DP  RH WIND       PRES   REMARKS
PINE BLUFF     SUNNY     73  52  47 VRB6      30.19F
STUTTGART      SUNNY     72  43  35 S12       30.21F
MONTICELLO     SUNNY     74  52  46 SE9       30.19F

$$






USA.gov is the U.S. government's official web portal to all federal, state and local government web resources and services.